sat.trackr.live / text

‹ back to catalog

STARLINK-35376

NORAD 66018 · 2025-232P

PAYLOAD ACTIVE UNKNOWN

§ Identity

Operator
Country
US
Launch date
2025-10-16
Launch site
AFETR
Launch vehicle
Mass (kg)
RCS (m²)

Purposes: comms

External: N2YO · Heavens-Above · Gunter

§ Orbital elements

Epoch: 2026-09-20T05:19:32.369952Z

Period
93.85 min
Inclination
53.1584°
Eccentricity
0.0001296
Mean motion
15.34408276 rev/d
Perigee alt
461.8 km
Apogee alt
463.6 km
Semi-major
6,840.8 km
B*
3.9333e-5
RAAN
277.1810°
Arg perigee
67.5992°
Mean anomaly
292.5148°
Rev number
5,326

§ Raw data

STARLINK-353761 66018U 25232P   26263.22190243  .00000953  00000+0  39333-4 0  99982 66018  53.1584 277.1810 0001296  67.5992 292.5148 15.34408276 53268

JSON: /api/v1/satellites/66018 · /tle

For live sub-satellite position, see the globe view (requires WebGL).

§ Visibility from observer

Set your observer location to see the next 7 days of passes ≥ 10°. The values pass through the URL so the page stays shareable.

No JS? Fill the form by hand. The geolocation button needs JavaScript.